Location: Unspecified
(56.9461°N, 65.4282°E)
Time: 18:19:45
(UTC+05:00)

ISS - Visible Passes

Search period start: 08 December 2025 00:00
Search period end: 18 December 2025 00:00
Orbit: 416 x 421 km, 51.6° (Epoch: 07 December)

Date Brightness Start Highest point End Pass type
(mag) Time Alt. Az. Time Alt. Az. Time Alt. Az.
13 Dec -0.7 08:11:20 10° SSW 08:13:32 16° SSE 08:15:44 10° ESE visible
14 Dec -0.6 07:24:16 10° S 07:25:49 13° SSE 07:27:21 10° ESE visible
15 Dec -1.3 08:11:13 10° SW 08:14:00 24° SSE 08:16:48 10° ESE visible
16 Dec -1.2 07:23:37 10° SSW 07:26:11 20° SSE 07:28:44 10° ESE visible
17 Dec -1.0 06:36:11 10° SSW 06:38:21 16° SSE 06:40:31 10° ESE visible
17 Dec -1.9 08:11:27 10° SW 08:14:28 31° S 08:17:30 10° ESE visible
